Flag for Guatemala Weather past 2 weeks in Guatemala, Guatemala

Now
64 °F

Passing clouds.


Feels Like: 64 °F
Forecast: 61 / 78 °F
Wind: 9 mph from North

Location: Guatemala Aeropuertola Aurora

Current Time: May 28, 2015 at 1:22:56 AM

Latest Report: May 28, 2015 at 1:00 AM


Visibility: N/A

Pressure: 30.27 "Hg

Humidity: 88%

Dew point: 61 °F

Location of GuatemalaLocation

Historic Weather in Guatemala — Graph

°F

Guatemala temperature yesterday

Maximum temperature yesterday: 79 °F (at 2:00 PM)
Minimum temperature yesterday: 63 °F (at 5:00 AM)
Average temperature yesterday: 70 °F

Past Weeks' High & Low Weather Summary

 TemperatureHumidityPressure
High84 °F (May 21, 2:00 PM)100% (May 15, 11:00 PM)30.39 "Hg (May 15, 11:00 PM)
Low59 °F (May 16, 4:00 AM)29% (May 21, 2:00 PM)30.18 "Hg (May 13, 3:00 PM)
Average69 °F78%30.28 "Hg
* Reported Midnight between May 12 and May 13 — Midnight between May 27 and May 28, Guatemala, Weather by CustomWeather, © 2015

Note: Actual official high and low records may vary slightly from our data, if they occured in-between our weather recording intervals... More about our weather records

Advertising

Guatemala weather history for previous 24 hours

 ConditionsComfort  
Time TempWeatherWind HumidityBarometerVisibility
12:00 AM
Thu, May 28
64 °FPassing clouds.9 mph88%30.30 "HgN/A
11:00 PM
Wed, May 27
66 °FClear.9 mph83%30.30 "Hg10 mi
9:00 PM66 °FClear.9 mph83%30.30 "Hg10 mi
8:00 PM68 °FPassing clouds.12 mph78%30.27 "HgN/A
7:00 PM72 °FPassing clouds.9 mph69%30.24 "HgN/A
6:00 PM72 °FThunderstorms. Scattered clouds.12 mph69%30.24 "HgN/A
5:10 PMN/AScattered clouds.14 mphN/AN/AN/A
5:00 PM75 °FLight rain. Scattered clouds.18 mph61%30.21 "HgN/A
4:00 PM79 °FBroken clouds.12 mph48%30.21 "HgN/A
3:00 PM79 °FPartly sunny.12 mph48%30.24 "HgN/A
2:00 PM79 °FPartly sunny.14 mph54%30.24 "HgN/A
1:00 PM77 °FBroken clouds.16 mph57%30.27 "HgN/A
12:00 PM73 °FOvercast.9 mph65%30.30 "HgN/A
11:00 AM73 °FOvercast.9 mph69%30.30 "HgN/A
10:00 AM72 °FPartly sunny.9 mph69%30.30 "HgN/A
9:00 AM70 °FOvercast.9 mph73%30.30 "HgN/A
8:00 AM68 °FOvercast.7 mph78%30.30 "Hg5 mi
7:00 AM64 °FPartly sunny.7 mph88%30.30 "Hg5 mi
6:00 AM63 °FPartly sunny.5 mph94%30.27 "Hg5 mi
5:00 AM63 °FPassing clouds.5 mph94%30.27 "HgN/A
4:00 AM64 °FPassing clouds.5 mph88%30.27 "HgN/A
3:00 AM64 °FPassing clouds.5 mph88%30.27 "HgN/A
2:00 AM64 °FPassing clouds.5 mph88%30.27 "HgN/A
1:00 AM64 °FOvercast.7 mph83%30.30 "HgN/A
Weather by CustomWeather, © 2015

See weather overviewHow to use our weather pages